Milan, Italy

3:02 AM CEST on April 28, 2017 (GMT +0200)
Malpensa

Weather History for LIMC - June, 2013

Change the Weather History Date:

Tuesday, June 11, 2013

  Actual Average Record
Temperature  
Mean Temperature 65 °F -  
Max Temperature 80 °F 80 °F 93 °F (2003)
Min Temperature 50 °F 57 °F 46 °F (2005)
Growing Degree Days 15 (Base 50)    
Moisture  
Dew Point 53 °F    
Average Humidity 66    
Maximum Humidity 100    
Minimum Humidity 34    
Precipitation  
Precipitation 0.00 in 0.11 in - ()
Sea Level Pressure  
Sea Level Pressure 29.89 in    
Wind  
Wind Speed 4 mph ()    
Max Wind Speed 10 mph    
Max Gust Speed -    
Visibility 6.2 miles    
Events Fog    
Averages and records for this station are not official NWS values.
T = Trace of Precipitation, MM = Missing Value Source: Averaged Metar Reports

Daily Weather History Graph

Daily Weather History Graph

Search for Another Location

Airport or City:

Trip Planner

Search our weather history database for the weather conditions in past years. The results will help you decide how hot, cold, wet, or windy it might be!

Date:

Astronomy

Jun. 11, 2013 Rise Set
Actual Time 5:35 AM CEST 9:14 PM CEST
Civil Twilight 4:57 AM CEST 9:52 PM CEST
Nautical Twilight 4:07 AM CEST 10:42 PM CEST
Astronomical Twilight 2:59 AM CEST 11:50 PM CEST
Moon 8:09 AM CEST (6/11) 11:00 PM CEST (6/11)
Length of Visible Light 16h 54m
Length of Day
15h 38m
Waxing Crescent, 7% of the Moon is Illuminated
Jun 11
Waxing Crescent
Jun 16
First Quarter
Jun 23
Full
Jun 30
Last Quarter
Jul 8
New

Hourly Weather History & Observations

Time (CEST) Temp. Dew Point Humidity Pressure Visibility Wind Dir Wind Speed Gust Speed Precip Events Conditions
12:20 AM 59.0 °F 57.2 °F 94% 29.86 in - South 3.5 mph - N/A   Clear
12:50 AM 57.2 °F 57.2 °F 100% 29.86 in - Variable 2.3 mph - N/A   Clear
1:20 AM 55.4 °F 55.4 °F 100% 29.86 in - Variable 1.2 mph - N/A   Clear
1:50 AM 55.4 °F 55.4 °F 100% 29.86 in - Variable 2.3 mph - N/A   Clear
2:20 AM 55.4 °F 55.4 °F 100% 29.86 in - Variable 2.3 mph - N/A   Clear
2:50 AM 53.6 °F 53.6 °F 100% 29.86 in - North 2.3 mph - N/A   Clear
3:20 AM 53.6 °F 53.6 °F 100% 29.86 in - Variable 2.3 mph - N/A   Clear
3:50 AM 51.8 °F 51.8 °F 100% 29.86 in - Variable 1.2 mph - N/A   Clear
4:20 AM 53.6 °F 53.6 °F 100% 29.86 in - Variable 1.2 mph - N/A   Clear
4:50 AM 50.0 °F 50.0 °F 100% 29.86 in - Calm Calm - N/A   Clear
5:20 AM 50.0 °F 50.0 °F 100% 29.86 in 6.2 mi NNE 2.3 mph - N/A Fog Unknown
5:50 AM 51.8 °F 51.8 °F 100% 29.86 in 6.2 mi Variable 1.2 mph - N/A Fog Unknown
6:20 AM 51.8 °F 51.8 °F 100% 29.86 in 6.2 mi Variable 2.3 mph - N/A Fog Shallow Fog
6:50 AM 55.4 °F 55.4 °F 100% 29.89 in - Variable 2.3 mph - N/A   Clear
7:20 AM 60.8 °F 57.2 °F 88% 29.89 in - Calm Calm - N/A   Clear
7:50 AM 62.6 °F 53.6 °F 72% 29.89 in - NW 9.2 mph - N/A   Clear
8:20 AM 64.4 °F 51.8 °F 64% 29.89 in - NNW 5.8 mph - N/A   Clear
8:50 AM 66.2 °F 51.8 °F 60% 29.89 in - NNW 4.6 mph - N/A   Clear
9:20 AM 69.8 °F 50.0 °F 49% 29.89 in - NNW 6.9 mph - N/A   Clear
9:50 AM 71.6 °F 50.0 °F 46% 29.89 in - NW 8.1 mph - N/A   Clear
10:20 AM 73.4 °F 50.0 °F 44% 29.89 in - West 6.9 mph - N/A   Clear
10:50 AM 73.4 °F 53.6 °F 50% 29.89 in - SW 6.9 mph - N/A   Clear
11:50 AM 73.4 °F 57.2 °F 57% 29.89 in - SSW 10.4 mph - N/A   Clear
12:20 PM 75.2 °F 57.2 °F 53% 29.89 in - SW 10.4 mph - N/A   Clear
12:50 PM 75.2 °F 57.2 °F 53% 29.89 in - SW 9.2 mph - N/A   Clear
1:20 PM 77.0 °F 55.4 °F 47% 29.89 in - SW 8.1 mph - N/A   Clear
1:50 PM 77.0 °F 53.6 °F 44% 29.89 in - SW 9.2 mph - N/A   Clear
2:20 PM 78.8 °F 51.8 °F 39% 29.89 in - SW 10.4 mph - N/A   Clear
2:50 PM 78.8 °F 50.0 °F 36% 29.89 in - SW 9.2 mph - N/A   Clear
3:20 PM 78.8 °F 51.8 °F 39% 29.89 in - WSW 8.1 mph - N/A   Clear
3:50 PM 78.8 °F 51.8 °F 39% 29.89 in - South 9.2 mph - N/A   Clear
4:20 PM 78.8 °F 50.0 °F 36% 29.89 in - SW 8.1 mph - N/A   Clear
4:50 PM 80.6 °F 50.0 °F 34% 29.89 in - SW 6.9 mph - N/A   Clear
5:20 PM 80.6 °F 50.0 °F 34% 29.89 in - SSW 8.1 mph - N/A   Clear
5:50 PM 80.6 °F 51.8 °F 37% 29.89 in - SSW 8.1 mph - N/A   Clear
6:20 PM 78.8 °F 51.8 °F 39% 29.89 in 6.2 mi SSW 6.9 mph - N/A   Partly Cloudy
6:50 PM 78.8 °F 51.8 °F 39% 29.89 in 6.2 mi SSW 6.9 mph - N/A   Partly Cloudy
7:20 PM 77.0 °F 53.6 °F 44% 29.89 in 6.2 mi South 4.6 mph - N/A   Partly Cloudy
7:50 PM 75.2 °F 53.6 °F 47% 29.89 in 6.2 mi Variable 2.3 mph - N/A   Scattered Clouds
8:20 PM 71.6 °F 55.4 °F 57% 29.92 in 6.2 mi SE 2.3 mph - N/A   Scattered Clouds
8:50 PM 69.8 °F 57.2 °F 64% 29.92 in 6.2 mi East 1.2 mph - N/A   Scattered Clouds
9:20 PM 69.8 °F 55.4 °F 60% 29.92 in 6.2 mi NE 3.5 mph - N/A   Scattered Clouds
9:50 PM 68.0 °F 53.6 °F 60% 29.95 in 6.2 mi East 4.6 mph - N/A   Scattered Clouds
10:20 PM 64.4 °F 55.4 °F 73% 29.98 in 6.2 mi ENE 3.5 mph - N/A   Scattered Clouds
10:50 PM 68.0 °F 51.8 °F 56% 29.98 in 6.2 mi East 5.8 mph - N/A   Scattered Clouds
11:20 PM 66.2 °F 53.6 °F 64% 29.98 in 6.2 mi East 3.5 mph - N/A   Scattered Clouds
11:50 PM 62.6 °F 55.4 °F 77% 29.98 in 6.2 mi Variable 2.3 mph - N/A   Partly Cloudy